Time,TemperatureF,DewpointF,PressureIn,WindDirection,WindDirectionDegrees,WindSpeedMPH,WindSpeedGustMPH,Humidity,HourlyPrecipIn,Conditions,Clouds,dailyrainin,SolarRadiationWatts/m^2,SoftwareType,DateUTC
2013-04-24 00:01:00,64.1,49.9,29.83,SSE,158,1.0,17.0,60,0.00,,,0.00,0,WeatherCatV1.12B45,2013-04-24 04:01:00,
2013-04-24 00:06:00,64.1,49.9,29.83,South,176,7.0,13.0,60,0.00,,,0.00,0,WeatherCatV1.12B45,2013-04-24 04:06:00,
2013-04-24 00:11:00,64.0,49.8,29.82,South,173,8.0,12.0,60,0.00,,,0.00,0,WeatherCatV1.12B45,2013-04-24 04:11:00,
2013-04-24 00:16:00,64.1,49.9,29.83,South,173,7.0,12.0,60,0.00,,,0.00,0,WeatherCatV1.12B45,2013-04-24 04:16:00,
2013-04-24 00:21:00,64.2,49.6,29.83,South,171,9.0,20.0,59,0.00,,,0.00,0,WeatherCatV1.12B45,2013-04-24 04:21:00,
2013-04-24 00:26:00,64.4,49.8,29.82,South,172,13.0,16.0,59,0.00,,,0.00,0,WeatherCatV1.12B45,2013-04-24 04:26:00,
2013-04-24 00:31:00,64.6,49.9,29.82,SSW,198,5.0,10.0,59,0.00,,,0.00,0,WeatherCatV1.12B45,2013-04-24 04:31:00,
2013-04-24 00:36:00,64.7,49.6,29.82,South,171,9.0,16.0,58,0.00,,,0.00,0,WeatherCatV1.12B45,2013-04-24 04:36:00,
2013-04-24 00:41:00,64.8,49.7,29.82,SSE,163,5.0,12.0,58,0.00,,,0.00,0,WeatherCatV1.12B45,2013-04-24 04:41:00,
2013-04-24 00:46:00,64.8,50.1,29.82,South,185,10.0,18.0,59,0.00,,,0.00,0,WeatherCatV1.12B45,2013-04-24 04:46:00,
2013-04-24 00:51:00,64.8,49.7,29.82,South,178,8.0,16.0,58,0.00,,,0.00,0,WeatherCatV1.12B45,2013-04-24 04:51:00,
2013-04-24 00:56:00,64.8,50.1,29.81,SW,218,9.0,14.0,59,0.00,,,0.00,0,WeatherCatV1.12B45,2013-04-24 04:56:00,
2013-04-24 01:01:00,64.7,50.0,29.81,SW,225,5.0,19.0,59,0.00,,,0.00,0,WeatherCatV1.12B45,2013-04-24 05:01:00,
2013-04-24 01:06:00,64.7,50.0,29.80,SSW,195,16.0,17.0,59,0.00,,,0.00,0,WeatherCatV1.12B45,2013-04-24 05:06:00,
2013-04-24 01:11:00,64.6,50.4,29.80,SW,216,4.0,14.0,60,0.00,,,0.00,0,WeatherCatV1.12B45,2013-04-24 05:11:00,
2013-04-24 01:16:00,64.5,50.3,29.80,South,175,13.0,14.0,60,0.00,,,0.00,0,WeatherCatV1.12B45,2013-04-24 05:16:00,
2013-04-24 01:21:00,64.5,50.3,29.80,SSE,165,5.0,14.0,60,0.00,,,0.00,0,WeatherCatV1.12B45,2013-04-24 05:21:00,
2013-04-24 01:26:00,64.4,50.2,29.80,SSE,147,9.0,13.0,60,0.00,,,0.00,0,WeatherCatV1.12B45,2013-04-24 05:26:00,
2013-04-24 01:31:00,64.3,50.1,29.80,SSW,198,10.0,17.0,60,0.00,,,0.00,0,WeatherCatV1.12B45,2013-04-24 05:31:00,
2013-04-24 01:36:00,64.2,50.5,29.80,SSE,166,10.0,16.0,61,0.00,,,0.00,0,WeatherCatV1.12B45,2013-04-24 05:36:00,
2013-04-24 01:41:00,64.1,50.4,29.79,SSW,201,6.0,14.0,61,0.00,,,0.00,0,WeatherCatV1.12B45,2013-04-24 05:41:00,
2013-04-24 01:46:00,64.0,50.7,29.79,SSE,154,10.0,11.0,62,0.00,,,0.00,0,WeatherCatV1.12B45,2013-04-24 05:46:00,
2013-04-24 01:51:00,63.9,50.6,29.78,South,189,4.0,16.0,62,0.00,,,0.00,0,WeatherCatV1.12B45,2013-04-24 05:51:00,
2013-04-24 01:54:00,63.9,50.6,29.78,South,171,5.0,9.0,62,0.00,,,0.00,0,WeatherCatV1.12B45,2013-04-24 05:54:00,
2013-04-24 01:59:00,64.0,50.7,29.78,SSE,163,5.0,14.0,62,0.00,,,0.00,0,WeatherCatV1.12B45,2013-04-24 05:59:00,
2013-04-24 02:04:00,64.0,50.7,29.78,SSE,150,4.0,15.0,62,0.00,,,0.00,0,WeatherCatV1.12B45,2013-04-24 06:04:00,
2013-04-24 02:09:00,64.0,51.1,29.78,SSE,163,7.0,18.0,63,0.00,,,0.00,0,WeatherCatV1.12B45,2013-04-24 06:09:00,
2013-04-24 02:14:00,64.0,51.1,29.77,SW,217,7.0,11.0,63,0.00,,,0.00,0,WeatherCatV1.12B45,2013-04-24 06:14:00,
2013-04-24 02:19:00,64.0,51.1,29.77,South,185,9.0,22.0,63,0.00,,,0.00,0,WeatherCatV1.12B45,2013-04-24 06:19:00,
2013-04-24 02:24:00,64.0,51.1,29.77,SSE,167,16.0,18.0,63,0.00,,,0.00,0,WeatherCatV1.12B45,2013-04-24 06:24:00,
2013-04-24 02:29:00,64.0,51.1,29.77,SSW,205,15.0,23.0,63,0.00,,,0.00,0,WeatherCatV1.12B45,2013-04-24 06:29:00,
2013-04-24 02:34:00,64.0,51.1,29.77,SSW,194,9.0,16.0,63,0.00,,,0.00,0,WeatherCatV1.12B45,2013-04-24 06:34:00,
2013-04-24 02:39:00,64.0,51.1,29.76,South,169,7.0,18.0,63,0.00,,,0.00,0,WeatherCatV1.12B45,2013-04-24 06:39:00,
2013-04-24 02:44:00,64.0,51.6,29.77,SSE,163,12.0,12.0,64,0.00,,,0.00,0,WeatherCatV1.12B45,2013-04-24 06:44:00,
2013-04-24 02:49:00,64.1,51.7,29.76,SSE,150,11.0,15.0,64,0.00,,,0.00,0,WeatherCatV1.12B45,2013-04-24 06:49:00,
2013-04-24 02:54:00,64.0,51.6,29.76,SSW,198,2.0,12.0,64,0.00,,,0.00,0,WeatherCatV1.12B45,2013-04-24 06:54:00,
2013-04-24 02:59:00,64.0,51.6,29.76,South,191,8.0,10.0,64,0.00,,,0.00,0,WeatherCatV1.12B45,2013-04-24 06:59:00,
2013-04-24 03:04:00,64.1,51.7,29.76,West,265,3.0,10.0,64,0.00,,,0.00,0,WeatherCatV1.12B45,2013-04-24 07:04:00,
2013-04-24 03:09:00,64.2,51.8,29.76,South,187,5.0,12.0,64,0.00,,,0.00,0,WeatherCatV1.12B45,2013-04-24 07:09:00,
2013-04-24 03:12:00,64.2,51.8,29.76,South,182,12.0,12.0,64,0.00,,,0.00,0,WeatherCatV1.12B45,2013-04-24 07:12:00,
2013-04-24 03:17:00,64.3,52.3,29.76,SSE,167,6.0,8.0,65,0.00,,,0.00,0,WeatherCatV1.12B45,2013-04-24 07:17:00,
2013-04-24 03:22:00,64.4,52.4,29.75,SSW,206,7.0,13.0,65,0.00,,,0.00,0,WeatherCatV1.12B45,2013-04-24 07:22:00,
2013-04-24 03:27:00,64.4,52.4,29.75,South,184,10.0,19.0,65,0.00,,,0.00,0,WeatherCatV1.12B45,2013-04-24 07:27:00,
2013-04-24 03:32:00,64.5,52.5,29.75,ESE,102,11.0,17.0,65,0.00,,,0.00,0,WeatherCatV1.12B45,2013-04-24 07:32:00,
2013-04-24 03:37:00,64.5,52.5,29.75,South,179,13.0,16.0,65,0.00,,,0.00,0,WeatherCatV1.12B45,2013-04-24 07:37:00,
2013-04-24 03:42:00,64.6,52.6,29.75,South,185,5.0,13.0,65,0.00,,,0.00,0,WeatherCatV1.12B45,2013-04-24 07:42:00,
2013-04-24 03:47:00,64.8,52.8,29.75,SW,224,6.0,13.0,65,0.00,,,0.00,0,WeatherCatV1.12B45,2013-04-24 07:47:00,
2013-04-24 03:52:00,64.9,52.8,29.75,South,169,5.0,16.0,65,0.00,,,0.00,0,WeatherCatV1.12B45,2013-04-24 07:52:00,
2013-04-24 03:57:00,65.0,52.9,29.75,South,175,5.0,14.0,65,0.00,,,0.00,0,WeatherCatV1.12B45,2013-04-24 07:57:00,
2013-04-24 04:02:00,65.0,52.9,29.75,SSW,211,6.0,16.0,65,0.00,,,0.00,0,WeatherCatV1.12B45,2013-04-24 08:02:00,
2013-04-24 04:07:00,65.1,53.0,29.75,South,185,17.0,17.0,65,0.00,,,0.00,0,WeatherCatV1.12B45,2013-04-24 08:07:00,
2013-04-24 04:12:00,65.2,53.1,29.75,SW,233,6.0,17.0,65,0.00,,,0.00,0,WeatherCatV1.12B45,2013-04-24 08:12:00,
2013-04-24 04:17:00,65.2,53.1,29.75,SSE,155,15.0,18.0,65,0.00,,,0.00,0,WeatherCatV1.12B45,2013-04-24 08:17:00,
2013-04-24 04:22:00,65.1,53.0,29.75,South,181,6.0,13.0,65,0.00,,,0.00,0,WeatherCatV1.12B45,2013-04-24 08:22:00,
2013-04-24 04:27:00,65.1,53.5,29.76,SW,229,4.0,12.0,66,0.00,,,0.00,0,WeatherCatV1.12B45,2013-04-24 08:27:00,
2013-04-24 04:32:00,64.9,53.7,29.76,SSW,204,3.0,13.0,67,0.00,,,0.00,0,WeatherCatV1.12B45,2013-04-24 08:32:00,
2013-04-24 04:38:00,64.7,53.5,29.76,SSW,205,5.0,13.0,67,0.00,,,0.00,0,WeatherCatV1.12B45,2013-04-24 08:38:00,
2013-04-24 04:43:00,64.6,53.4,29.76,SSW,192,17.0,17.0,67,0.00,,,0.00,0,WeatherCatV1.12B45,2013-04-24 08:43:00,
2013-04-24 04:48:00,64.6,53.4,29.76,SW,223,5.0,13.0,67,0.00,,,0.00,0,WeatherCatV1.12B45,2013-04-24 08:48:00,
2013-04-24 04:53:00,64.6,53.4,29.75,SSE,162,7.0,9.0,67,0.00,,,0.00,0,WeatherCatV1.12B45,2013-04-24 08:53:00,
2013-04-24 04:58:00,64.5,53.3,29.75,SSW,206,4.0,17.0,67,0.00,,,0.00,0,WeatherCatV1.12B45,2013-04-24 08:58:00,
2013-04-24 05:03:00,64.5,53.3,29.75,South,184,10.0,16.0,67,0.00,,,0.00,0,WeatherCatV1.12B45,2013-04-24 09:03:00,
2013-04-24 05:08:00,64.6,53.4,29.75,SSW,206,5.0,11.0,67,0.00,,,0.00,0,WeatherCatV1.12B45,2013-04-24 09:08:00,
2013-04-24 05:13:00,64.5,53.3,29.76,South,177,6.0,10.0,67,0.00,,,0.00,0,WeatherCatV1.12B45,2013-04-24 09:13:00,
2013-04-24 05:18:00,64.4,54.0,29.76,SW,224,5.0,12.0,69,0.00,,,0.00,0,WeatherCatV1.12B45,2013-04-24 09:18:00,
2013-04-24 05:23:00,64.2,53.8,29.76,SSW,204,3.0,16.0,69,0.00,,,0.00,0,WeatherCatV1.12B45,2013-04-24 09:23:00,
2013-04-24 05:28:00,63.9,53.9,29.76,SSE,167,4.0,9.0,70,0.00,,,0.00,0,WeatherCatV1.12B45,2013-04-24 09:28:00,
2013-04-24 05:33:00,63.8,53.8,29.75,SW,221,4.0,9.0,70,0.00,,,0.00,0,WeatherCatV1.12B45,2013-04-24 09:33:00,
2013-04-24 05:38:00,63.8,53.8,29.75,WSW,250,5.0,11.0,70,0.00,,,0.00,0,WeatherCatV1.12B45,2013-04-24 09:38:00,
2013-04-24 05:43:00,63.8,53.8,29.76,SW,231,1.0,12.0,70,0.00,,,0.00,0,WeatherCatV1.12B45,2013-04-24 09:43:00,
2013-04-24 05:48:00,63.8,53.8,29.76,South,181,10.0,14.0,70,0.00,,,0.00,0,WeatherCatV1.12B45,2013-04-24 09:48:00,
2013-04-24 05:53:00,63.9,53.9,29.76,SSW,196,5.0,6.0,70,0.00,,,0.00,0,WeatherCatV1.12B45,2013-04-24 09:53:00,
2013-04-24 05:58:00,63.8,53.8,29.76,SSW,204,6.0,15.0,70,0.00,,,0.00,0,WeatherCatV1.12B45,2013-04-24 09:58:00,
2013-04-24 06:03:00,63.8,53.8,29.76,SW,235,5.0,9.0,70,0.00,,,0.00,0,WeatherCatV1.12B45,2013-04-24 10:03:00,
2013-04-24 06:08:00,63.8,53.8,29.76,SSW,208,2.0,7.0,70,0.00,,,0.00,0,WeatherCatV1.12B45,2013-04-24 10:08:00,
2013-04-24 06:13:00,63.7,53.7,29.75,SW,219,5.0,12.0,70,0.00,,,0.00,0,WeatherCatV1.12B45,2013-04-24 10:13:00,
2013-04-24 06:18:00,63.6,53.6,29.75,South,179,5.0,11.0,70,0.00,,,0.00,0,WeatherCatV1.12B45,2013-04-24 10:18:00,
2013-04-24 06:23:00,63.6,53.6,29.75,SSW,208,3.0,8.0,70,0.00,,,0.00,0,WeatherCatV1.12B45,2013-04-24 10:23:00,
2013-04-24 06:28:00,63.5,53.5,29.75,South,190,6.0,10.0,70,0.00,,,0.00,0,WeatherCatV1.12B45,2013-04-24 10:28:00,
2013-04-24 06:33:00,63.5,53.5,29.75,South,181,5.0,6.0,70,0.00,,,0.00,0,WeatherCatV1.12B45,2013-04-24 10:33:00,
2013-04-24 06:38:00,63.5,53.5,29.75,South,185,8.0,12.0,70,0.00,,,0.00,0,WeatherCatV1.12B45,2013-04-24 10:38:00,
2013-04-24 06:43:00,63.5,53.5,29.75,SSE,160,6.0,11.0,70,0.00,,,0.00,0,WeatherCatV1.12B45,2013-04-24 10:43:00,
2013-04-24 06:48:00,63.4,53.4,29.75,South,176,11.0,12.0,70,0.00,,,0.00,0,WeatherCatV1.12B45,2013-04-24 10:48:00,
2013-04-24 06:53:00,63.4,53.4,29.75,South,186,4.0,7.0,70,0.00,,,0.00,0,WeatherCatV1.12B45,2013-04-24 10:53:00,
2013-04-24 06:58:00,63.4,53.8,29.75,South,183,4.0,7.0,71,0.00,,,0.00,0,WeatherCatV1.12B45,2013-04-24 10:58:00,
2013-04-24 07:03:00,63.4,53.8,29.75,South,174,9.0,12.0,71,0.00,,,0.00,0,WeatherCatV1.12B45,2013-04-24 11:03:00,
2013-04-24 07:08:00,63.3,53.7,29.75,South,185,5.0,13.0,71,0.00,,,0.00,0,WeatherCatV1.12B45,2013-04-24 11:08:00,
2013-04-24 07:12:00,63.2,53.6,29.75,SSW,192,3.0,7.0,71,0.00,,,0.00,0,WeatherCatV1.12B45,2013-04-24 11:12:00,
2013-04-24 07:17:00,63.1,53.9,29.74,South,175,6.0,9.0,72,0.00,,,0.00,12,WeatherCatV1.12B45,2013-04-24 11:17:00,
2013-04-24 07:22:00,63.0,53.8,29.74,South,177,10.0,19.0,72,0.00,,,0.00,9,WeatherCatV1.12B45,2013-04-24 11:22:00,
2013-04-24 07:27:00,62.9,53.7,29.74,SSW,199,5.0,9.0,72,0.00,,,0.00,7,WeatherCatV1.12B45,2013-04-24 11:27:00,
2013-04-24 07:32:00,62.8,54.0,29.75,WSW,244,6.0,11.0,73,0.00,,,0.00,0,WeatherCatV1.12B45,2013-04-24 11:32:00,
2013-04-24 07:37:00,62.8,54.0,29.76,SW,223,3.0,7.0,73,0.00,,,0.00,0,WeatherCatV1.12B45,2013-04-24 11:37:00,
2013-04-24 07:42:00,62.6,54.9,29.77,South,169,8.0,10.0,76,0.00,,,0.01,0,WeatherCatV1.12B45,2013-04-24 11:42:00,
2013-04-24 07:47:00,62.0,55.8,29.78,WSW,245,8.0,8.0,80,0.15,,,0.03,0,WeatherCatV1.12B45,2013-04-24 11:47:00,
2013-04-24 07:52:00,61.3,56.4,29.78,WSW,238,3.0,7.0,84,0.28,,,0.05,0,WeatherCatV1.12B45,2013-04-24 11:52:00,
2013-04-24 07:57:00,60.6,56.4,29.77,West,260,3.0,6.0,86,0.23,,,0.07,5,WeatherCatV1.12B45,2013-04-24 11:57:00,
2013-04-24 08:02:00,60.1,56.5,29.77,SW,229,3.0,4.0,88,0.14,,,0.08,9,WeatherCatV1.12B45,2013-04-24 12:02:00,
2013-04-24 08:08:00,59.7,56.4,29.76,WSW,254,4.0,4.0,89,0.19,,,0.10,7,WeatherCatV1.12B45,2013-04-24 12:08:00,
2013-04-24 08:13:00,59.0,55.8,29.77,North,350,5.0,10.0,89,0.20,,,0.11,7,WeatherCatV1.12B45,2013-04-24 12:13:00,
2013-04-24 08:18:00,57.7,54.2,29.75,WNW,297,6.0,8.0,88,0.13,,,0.12,16,WeatherCatV1.12B45,2013-04-24 12:18:00,
2013-04-24 08:23:00,56.7,53.5,29.75,NW,308,9.0,9.0,89,0.07,,,0.12,32,WeatherCatV1.12B45,2013-04-24 12:23:00,
2013-04-24 08:28:00,55.6,52.1,29.76,West,273,8.0,8.0,88,0.04,,,0.12,23,WeatherCatV1.12B45,2013-04-24 12:28:00,
2013-04-24 08:33:00,54.7,51.5,29.76,NW,325,3.0,7.0,89,0.00,,,0.12,39,WeatherCatV1.12B45,2013-04-24 12:33:00,
2013-04-24 08:38:00,53.7,50.2,29.76,WNW,289,3.0,5.0,88,0.00,,,0.12,26,WeatherCatV1.12B45,2013-04-24 12:38:00,
2013-04-24 08:43:00,53.1,49.9,29.76,NNW,329,1.0,3.0,89,0.00,,,0.12,18,WeatherCatV1.12B45,2013-04-24 12:43:00,
2013-04-24 08:48:00,52.9,50.0,29.76,WNW,298,2.0,3.0,90,0.00,,,0.13,19,WeatherCatV1.12B45,2013-04-24 12:48:00,
2013-04-24 08:53:00,52.7,50.1,29.76,NW,310,2.0,4.0,91,0.10,,,0.14,16,WeatherCatV1.12B45,2013-04-24 12:53:00,
2013-04-24 08:58:00,52.5,49.9,29.75,West,275,1.0,3.0,91,0.11,,,0.15,18,WeatherCatV1.12B45,2013-04-24 12:58:00,
2013-04-24 09:03:00,52.4,50.1,29.76,NW,312,1.0,1.0,92,0.17,,,0.16,11,WeatherCatV1.12B45,2013-04-24 13:03:00,
2013-04-24 09:08:00,52.4,50.4,29.78,SW,231,5.0,5.0,93,0.27,,,0.18,12,WeatherCatV1.12B45,2013-04-24 13:08:00,
2013-04-24 09:13:00,52.4,50.4,29.78,West,270,3.0,8.0,93,0.15,,,0.20,9,WeatherCatV1.12B45,2013-04-24 13:13:00,
2013-04-24 09:18:00,52.3,50.6,29.77,NW,308,6.0,7.0,94,0.12,,,0.21,7,WeatherCatV1.12B45,2013-04-24 13:18:00,
2013-04-24 09:23:00,52.0,50.0,29.78,WNW,289,6.0,10.0,93,0.17,,,0.22,7,WeatherCatV1.12B45,2013-04-24 13:23:00,
2013-04-24 09:28:00,51.6,49.6,29.77,West,281,7.0,8.0,93,0.30,,,0.24,12,WeatherCatV1.12B45,2013-04-24 13:28:00,
2013-04-24 09:33:00,51.4,49.4,29.77,NW,322,5.0,8.0,93,0.12,,,0.25,7,WeatherCatV1.12B45,2013-04-24 13:33:00,
2013-04-24 09:38:00,50.9,48.9,29.77,WNW,297,6.0,10.0,93,0.09,,,0.26,19,WeatherCatV1.12B45,2013-04-24 13:38:00,
2013-04-24 09:43:00,50.2,48.3,29.77,West,281,7.0,9.0,93,0.15,,,0.27,16,WeatherCatV1.12B45,2013-04-24 13:43:00,
2013-04-24 09:48:00,49.7,47.8,29.77,WNW,283,2.0,5.0,93,0.16,,,0.28,28,WeatherCatV1.12B45,2013-04-24 13:48:00,
2013-04-24 09:53:00,49.4,47.5,29.78,WNW,296,5.0,8.0,93,0.09,,,0.29,21,WeatherCatV1.12B45,2013-04-24 13:53:00,
2013-04-24 09:58:00,49.2,47.5,29.77,WNW,287,3.0,5.0,94,0.10,,,0.30,26,WeatherCatV1.12B45,2013-04-24 13:58:00,
2013-04-24 10:03:00,49.2,47.5,29.78,WNW,284,4.0,6.0,94,0.10,,,0.30,18,WeatherCatV1.12B45,2013-04-24 14:03:00,
2013-04-24 10:08:00,49.0,47.3,29.79,WNW,296,7.0,11.0,94,0.19,,,0.32,12,WeatherCatV1.12B45,2013-04-24 14:08:00,
2013-04-24 10:13:00,48.8,47.2,29.80,WNW,283,10.0,10.0,94,0.36,,,0.34,9,WeatherCatV1.12B45,2013-04-24 14:13:00,
2013-04-24 10:18:00,48.1,46.5,29.80,WSW,243,9.0,15.0,94,0.43,,,0.37,21,WeatherCatV1.12B45,2013-04-24 14:18:00,
2013-04-24 10:23:00,47.2,45.3,29.81,West,273,8.0,11.0,93,0.42,,,0.41,18,WeatherCatV1.12B45,2013-04-24 14:23:00,
2013-04-24 10:28:00,46.8,45.2,29.82,West,281,6.0,12.0,94,0.44,,,0.44,26,WeatherCatV1.12B45,2013-04-24 14:28:00,
2013-04-24 10:33:00,46.5,44.9,29.79,WNW,287,7.0,8.0,94,0.32,,,0.47,51,WeatherCatV1.12B45,2013-04-24 14:33:00,
2013-04-24 10:38:00,46.3,44.7,29.77,NW,312,3.0,3.0,94,0.17,,,0.48,62,WeatherCatV1.12B45,2013-04-24 14:38:00,
2013-04-24 10:43:00,46.3,44.9,29.77,NW,312,2.0,2.0,95,0.07,,,0.49,74,WeatherCatV1.12B45,2013-04-24 14:43:00,
2013-04-24 10:48:00,46.3,44.9,29.78,West,262,3.0,12.0,95,0.07,,,0.49,104,WeatherCatV1.12B45,2013-04-24 14:48:00,
2013-04-24 10:53:00,46.3,44.9,29.79,SW,236,3.0,9.0,95,0.09,,,0.50,204,WeatherCatV1.12B45,2013-04-24 14:53:00,
2013-04-24 10:58:00,46.3,44.9,29.79,West,263,4.0,10.0,95,0.07,,,0.50,134,WeatherCatV1.12B45,2013-04-24 14:58:00,
2013-04-24 11:03:00,45.8,44.4,29.79,WNW,284,7.0,10.0,95,0.06,,,0.51,84,WeatherCatV1.12B45,2013-04-24 15:03:00,
2013-04-24 11:09:00,45.4,44.1,29.79,WNW,287,6.0,11.0,95,0.06,,,0.51,83,WeatherCatV1.12B45,2013-04-24 15:09:00,
2013-04-24 11:14:00,45.3,44.0,29.78,NNW,332,4.0,9.0,95,0.06,,,0.52,70,WeatherCatV1.12B45,2013-04-24 15:14:00,
2013-04-24 11:19:00,45.3,44.0,29.76,WNW,285,3.0,5.0,95,0.09,,,0.53,67,WeatherCatV1.12B45,2013-04-24 15:19:00,
2013-04-24 11:24:00,45.4,44.1,29.74,NW,313,0.0,5.0,95,0.09,,,0.54,47,WeatherCatV1.12B45,2013-04-24 15:24:00,
2013-04-24 11:29:00,45.5,44.2,29.77,NW,313,0.0,0.0,95,0.09,,,0.54,46,WeatherCatV1.12B45,2013-04-24 15:29:00,
2013-04-24 11:34:00,45.5,44.2,29.78,NW,313,0.0,2.0,95,0.07,,,0.55,47,WeatherCatV1.12B45,2013-04-24 15:34:00,
2013-04-24 11:39:00,45.5,44.2,29.83,West,263,5.0,13.0,95,0.07,,,0.55,12,WeatherCatV1.12B45,2013-04-24 15:39:00,
2013-04-24 11:44:00,45.4,44.3,29.83,WSW,241,2.0,9.0,96,0.05,,,0.55,23,WeatherCatV1.12B45,2013-04-24 15:44:00,
2013-04-24 11:49:00,45.0,43.7,29.83,West,274,4.0,9.0,95,0.00,,,0.55,28,WeatherCatV1.12B45,2013-04-24 15:49:00,
2013-04-24 11:54:00,44.7,43.4,29.86,West,266,4.0,7.0,95,0.00,,,0.55,14,WeatherCatV1.12B45,2013-04-24 15:54:00,
2013-04-24 11:59:00,44.4,43.1,29.85,NW,315,4.0,10.0,95,0.00,,,0.55,28,WeatherCatV1.12B45,2013-04-24 15:59:00,
2013-04-24 12:04:00,44.2,42.9,29.85,WNW,285,5.0,10.0,95,0.00,,,0.56,44,WeatherCatV1.12B45,2013-04-24 16:04:00,
2013-04-24 12:09:00,43.9,42.6,29.86,West,270,6.0,11.0,95,0.00,,,0.56,54,WeatherCatV1.12B45,2013-04-24 16:09:00,
2013-04-24 12:14:00,43.7,42.4,29.87,WNW,283,8.0,16.0,95,0.00,,,0.56,47,WeatherCatV1.12B45,2013-04-24 16:14:00,
2013-04-24 12:19:00,43.6,42.0,29.87,WSW,248,4.0,9.0,94,0.00,,,0.56,40,WeatherCatV1.12B45,2013-04-24 16:19:00,
2013-04-24 12:24:00,43.5,41.9,29.89,WSW,256,10.0,12.0,94,0.00,,,0.56,40,WeatherCatV1.12B45,2013-04-24 16:24:00,
2013-04-24 12:29:00,43.5,41.9,29.88,WSW,250,8.0,13.0,94,0.00,,,0.56,49,WeatherCatV1.12B45,2013-04-24 16:29:00,
2013-04-24 12:34:00,43.4,42.1,29.89,WSW,258,3.0,13.0,95,0.00,,,0.57,58,WeatherCatV1.12B45,2013-04-24 16:34:00,
2013-04-24 12:39:00,43.1,41.5,29.90,WNW,285,8.0,14.0,94,0.07,,,0.57,83,WeatherCatV1.12B45,2013-04-24 16:39:00,
2013-04-24 12:44:00,42.9,41.3,29.90,WNW,285,9.0,12.0,94,0.07,,,0.58,109,WeatherCatV1.12B45,2013-04-24 16:44:00,
2013-04-24 12:49:00,42.8,41.2,29.91,West,272,5.0,8.0,94,0.06,,,0.58,142,WeatherCatV1.12B45,2013-04-24 16:49:00,
2013-04-24 12:54:00,42.9,41.6,29.91,SSW,206,5.0,12.0,95,0.04,,,0.58,100,WeatherCatV1.12B45,2013-04-24 16:54:00,
2013-04-24 12:59:00,42.8,41.5,29.91,NW,306,9.0,16.0,95,0.00,,,0.59,104,WeatherCatV1.12B45,2013-04-24 16:59:00,
2013-04-24 13:04:00,42.7,41.4,29.92,WNW,285,6.0,11.0,95,0.00,,,0.59,195,WeatherCatV1.12B45,2013-04-24 17:04:00,
2013-04-24 13:09:00,42.7,41.4,29.92,WSW,254,8.0,10.0,95,0.00,,,0.59,185,WeatherCatV1.12B45,2013-04-24 17:09:00,
2013-04-24 13:14:00,42.7,41.4,29.92,West,269,3.0,10.0,95,0.00,,,0.59,167,WeatherCatV1.12B45,2013-04-24 17:14:00,
2013-04-24 13:19:00,42.7,41.4,29.92,NNW,333,7.0,12.0,95,0.00,,,0.59,197,WeatherCatV1.12B45,2013-04-24 17:19:00,
2013-04-24 13:24:00,42.6,41.3,29.93,WNW,297,8.0,16.0,95,0.00,,,0.59,341,WeatherCatV1.12B45,2013-04-24 17:24:00,
2013-04-24 13:29:00,42.6,41.3,29.92,West,260,11.0,17.0,95,0.00,,,0.59,241,WeatherCatV1.12B45,2013-04-24 17:29:00,
2013-04-24 13:34:00,42.6,41.3,29.92,WSW,246,3.0,14.0,95,0.00,,,0.59,151,WeatherCatV1.12B45,2013-04-24 17:34:00,
2013-04-24 13:39:00,42.6,41.3,29.92,West,275,4.0,12.0,95,0.00,,,0.59,225,WeatherCatV1.12B45,2013-04-24 17:39:00,
2013-04-24 13:44:00,42.8,41.5,29.92,West,277,10.0,13.0,95,0.00,,,0.59,227,WeatherCatV1.12B45,2013-04-24 17:44:00,
2013-04-24 13:49:00,42.6,41.3,29.92,North,356,7.0,13.0,95,0.00,,,0.59,301,WeatherCatV1.12B45,2013-04-24 17:49:00,
2013-04-24 13:54:00,42.7,41.4,29.92,WNW,284,6.0,15.0,95,0.00,,,0.59,220,WeatherCatV1.12B45,2013-04-24 17:54:00,
2013-04-24 13:59:00,42.8,41.5,29.92,WNW,283,11.0,20.0,95,0.00,,,0.59,279,WeatherCatV1.12B45,2013-04-24 17:59:00,
2013-04-24 14:04:00,42.5,40.9,29.92,West,260,5.0,10.0,94,0.00,,,0.59,158,WeatherCatV1.12B45,2013-04-24 18:04:00,
2013-04-24 14:09:00,42.5,40.9,29.93,West,281,9.0,15.0,94,0.00,,,0.59,125,WeatherCatV1.12B45,2013-04-24 18:09:00,
2013-04-24 14:14:00,42.5,40.9,29.93,WSW,238,14.0,18.0,94,0.00,,,0.59,114,WeatherCatV1.12B45,2013-04-24 18:14:00,
2013-04-24 14:19:00,42.1,39.9,29.94,WNW,284,7.0,15.0,92,0.00,,,0.60,125,WeatherCatV1.12B45,2013-04-24 18:19:00,
2013-04-24 14:24:00,42.0,39.8,29.94,West,280,5.0,13.0,92,0.00,,,0.60,185,WeatherCatV1.12B45,2013-04-24 18:24:00,
2013-04-24 14:29:00,42.1,39.9,29.94,WSW,248,6.0,15.0,92,0.00,,,0.60,153,WeatherCatV1.12B45,2013-04-24 18:29:00,
2013-04-24 14:34:00,42.1,39.7,29.95,WSW,250,6.0,12.0,91,0.00,,,0.60,163,WeatherCatV1.12B45,2013-04-24 18:34:00,
2013-04-24 14:39:00,42.0,39.6,29.95,WNW,284,4.0,13.0,91,0.00,,,0.60,113,WeatherCatV1.12B45,2013-04-24 18:39:00,
2013-04-24 14:44:00,42.0,39.6,29.96,West,262,6.0,14.0,91,0.00,,,0.60,97,WeatherCatV1.12B45,2013-04-24 18:44:00,
2013-04-24 14:49:00,42.0,39.3,29.96,West,280,3.0,15.0,90,0.00,,,0.60,98,WeatherCatV1.12B45,2013-04-24 18:49:00,
2013-04-24 14:54:00,41.9,39.2,29.96,West,260,11.0,11.0,90,0.00,,,0.60,148,WeatherCatV1.12B45,2013-04-24 18:54:00,
2013-04-24 14:59:00,41.7,38.4,29.97,WNW,293,19.0,24.0,88,0.00,,,0.60,149,WeatherCatV1.12B45,2013-04-24 18:59:00,
2013-04-24 15:04:00,41.7,38.4,29.97,West,273,5.0,12.0,88,0.00,,,0.60,162,WeatherCatV1.12B45,2013-04-24 19:04:00,
2013-04-24 15:09:00,42.0,38.7,29.97,WNW,290,7.0,14.0,88,0.00,,,0.60,325,WeatherCatV1.12B45,2013-04-24 19:09:00,
2013-04-24 15:14:00,42.1,38.5,29.98,WSW,253,6.0,15.0,87,0.00,,,0.60,153,WeatherCatV1.12B45,2013-04-24 19:14:00,
2013-04-24 15:19:00,42.1,38.5,29.98,North,7,12.0,12.0,87,0.00,,,0.60,98,WeatherCatV1.12B45,2013-04-24 19:19:00,
2013-04-24 15:24:00,42.3,38.7,29.99,WNW,289,15.0,15.0,87,0.00,,,0.60,134,WeatherCatV1.12B45,2013-04-24 19:24:00,
2013-04-24 15:29:00,42.4,38.5,29.99,West,263,3.0,12.0,86,0.00,,,0.60,86,WeatherCatV1.12B45,2013-04-24 19:29:00,
2013-04-24 15:34:00,42.6,39.0,29.99,SW,232,4.0,9.0,87,0.00,,,0.60,100,WeatherCatV1.12B45,2013-04-24 19:34:00,
2013-04-24 15:40:00,42.7,38.5,30.00,WNW,286,11.0,15.0,85,0.00,,,0.60,169,WeatherCatV1.12B45,2013-04-24 19:40:00,
2013-04-24 15:45:00,42.8,38.0,30.00,WNW,283,5.0,15.0,83,0.00,,,0.60,311,WeatherCatV1.12B45,2013-04-24 19:45:00,
2013-04-24 15:50:00,43.1,38.0,30.00,WNW,287,7.0,17.0,82,0.00,,,0.60,162,WeatherCatV1.12B45,2013-04-24 19:50:00,
2013-04-24 15:55:00,43.3,37.9,30.01,West,268,7.0,11.0,81,0.00,,,0.60,120,WeatherCatV1.12B45,2013-04-24 19:55:00,
2013-04-24 16:00:00,43.3,37.9,30.01,West,277,9.0,14.0,81,0.00,,,0.60,258,WeatherCatV1.12B45,2013-04-24 20:00:00,
2013-04-24 16:05:00,43.4,37.6,30.00,WSW,248,8.0,15.0,80,0.00,,,0.60,234,WeatherCatV1.12B45,2013-04-24 20:05:00,
2013-04-24 16:10:00,43.5,37.4,30.01,WNW,285,11.0,17.0,79,0.00,,,0.60,132,WeatherCatV1.12B45,2013-04-24 20:10:00,
2013-04-24 16:15:00,43.5,37.4,30.01,WNW,285,6.0,16.0,79,0.00,,,0.60,169,WeatherCatV1.12B45,2013-04-24 20:15:00,
2013-04-24 16:20:00,43.7,37.3,30.02,WSW,250,8.0,9.0,78,0.00,,,0.60,109,WeatherCatV1.12B45,2013-04-24 20:20:00,
2013-04-24 16:25:00,43.7,37.3,30.02,WNW,291,12.0,13.0,78,0.00,,,0.60,185,WeatherCatV1.12B45,2013-04-24 20:25:00,
2013-04-24 16:30:00,43.8,37.1,30.03,WSW,258,4.0,14.0,77,0.00,,,0.60,156,WeatherCatV1.12B45,2013-04-24 20:30:00,
2013-04-24 16:35:00,43.9,36.8,30.03,WNW,287,7.0,17.0,76,0.00,,,0.60,120,WeatherCatV1.12B45,2013-04-24 20:35:00,
2013-04-24 16:40:00,43.8,36.4,30.03,West,281,5.0,15.0,75,0.00,,,0.60,165,WeatherCatV1.12B45,2013-04-24 20:40:00,
2013-04-24 16:45:00,44.0,37.3,30.04,West,275,4.0,10.0,77,0.00,,,0.60,232,WeatherCatV1.12B45,2013-04-24 20:45:00,
2013-04-24 16:50:00,44.2,37.1,30.04,West,272,5.0,14.0,76,0.00,,,0.60,218,WeatherCatV1.12B45,2013-04-24 20:50:00,
2013-04-24 16:55:00,44.4,36.6,30.04,WNW,290,8.0,14.0,74,0.00,,,0.60,158,WeatherCatV1.12B45,2013-04-24 20:55:00,
2013-04-24 17:00:00,44.3,36.5,30.05,West,277,9.0,13.0,74,0.00,,,0.60,69,WeatherCatV1.12B45,2013-04-24 21:00:00,
2013-04-24 17:05:00,44.2,36.1,30.05,WNW,287,6.0,15.0,73,0.00,,,0.60,83,WeatherCatV1.12B45,2013-04-24 21:05:00,
2013-04-24 17:10:00,44.1,36.4,30.05,West,281,8.0,11.0,74,0.00,,,0.60,88,WeatherCatV1.12B45,2013-04-24 21:10:00,
2013-04-24 17:15:00,44.1,36.7,30.06,WNW,285,10.0,11.0,75,0.00,,,0.60,134,WeatherCatV1.12B45,2013-04-24 21:15:00,
2013-04-24 17:20:00,44.2,36.8,30.06,West,271,3.0,10.0,75,0.00,,,0.60,134,WeatherCatV1.12B45,2013-04-24 21:20:00,
2013-04-24 17:25:00,44.3,36.2,30.06,West,275,5.0,12.0,73,0.00,,,0.60,98,WeatherCatV1.12B45,2013-04-24 21:25:00,
2013-04-24 17:30:00,44.5,36.4,30.06,WNW,291,7.0,10.0,73,0.00,,,0.60,128,WeatherCatV1.12B45,2013-04-24 21:30:00,
2013-04-24 17:35:00,44.6,36.1,30.07,West,262,8.0,12.0,72,0.00,,,0.60,123,WeatherCatV1.12B45,2013-04-24 21:35:00,
2013-04-24 17:40:00,44.6,36.1,30.07,West,267,4.0,9.0,72,0.00,,,0.60,118,WeatherCatV1.12B45,2013-04-24 21:40:00,
2013-04-24 17:45:00,44.7,36.6,30.07,WSW,241,9.0,14.0,73,0.00,,,0.60,105,WeatherCatV1.12B45,2013-04-24 21:45:00,
2013-04-24 17:50:00,44.7,35.9,30.08,West,281,5.0,11.0,71,0.00,,,0.60,91,WeatherCatV1.12B45,2013-04-24 21:50:00,
2013-04-24 17:55:00,44.7,35.9,30.08,WNW,286,5.0,16.0,71,0.00,,,0.60,88,WeatherCatV1.12B45,2013-04-24 21:55:00,
2013-04-24 18:00:00,44.6,35.4,30.08,West,269,13.0,13.0,70,0.00,,,0.60,109,WeatherCatV1.12B45,2013-04-24 22:00:00,
2013-04-24 18:06:00,44.5,35.3,30.08,WNW,298,5.0,14.0,70,0.00,,,0.60,128,WeatherCatV1.12B45,2013-04-24 22:06:00,
2013-04-24 18:11:00,44.6,35.8,30.08,WNW,285,7.0,15.0,71,0.00,,,0.60,137,WeatherCatV1.12B45,2013-04-24 22:11:00,
2013-04-24 18:16:00,44.7,35.9,30.09,WSW,242,5.0,11.0,71,0.00,,,0.60,188,WeatherCatV1.12B45,2013-04-24 22:16:00,
2013-04-24 18:21:00,44.8,35.6,30.09,West,265,6.0,12.0,70,0.00,,,0.60,113,WeatherCatV1.12B45,2013-04-24 22:21:00,
2013-04-24 18:26:00,44.8,35.6,30.09,WSW,258,4.0,8.0,70,0.00,,,0.60,121,WeatherCatV1.12B45,2013-04-24 22:26:00,
2013-04-24 18:31:00,44.8,35.6,30.09,West,281,8.0,14.0,70,0.00,,,0.60,109,WeatherCatV1.12B45,2013-04-24 22:31:00,
2013-04-24 18:36:00,44.8,35.6,30.10,WSW,247,5.0,11.0,70,0.00,,,0.60,116,WeatherCatV1.12B45,2013-04-24 22:36:00,
2013-04-24 18:41:00,44.8,35.6,30.10,West,269,3.0,12.0,70,0.00,,,0.60,128,WeatherCatV1.12B45,2013-04-24 22:41:00,
2013-04-24 18:46:00,44.8,36.0,30.10,WSW,254,4.0,11.0,71,0.00,,,0.60,121,WeatherCatV1.12B45,2013-04-24 22:46:00,
2013-04-24 18:51:00,44.9,36.1,30.10,WNW,287,7.0,11.0,71,0.00,,,0.60,146,WeatherCatV1.12B45,2013-04-24 22:51:00,
2013-04-24 18:56:00,45.1,36.3,30.10,NW,310,7.0,11.0,71,0.00,,,0.60,134,WeatherCatV1.12B45,2013-04-24 22:56:00,
2013-04-24 19:01:00,45.4,36.2,30.10,West,274,6.0,8.0,70,0.00,,,0.60,58,WeatherCatV1.12B45,2013-04-24 23:01:00,
2013-04-24 19:06:00,45.4,35.8,30.10,West,279,7.0,11.0,69,0.00,,,0.60,83,WeatherCatV1.12B45,2013-04-24 23:06:00,
2013-04-24 19:11:00,45.3,35.4,30.11,WNW,286,4.0,13.0,68,0.00,,,0.60,107,WeatherCatV1.12B45,2013-04-24 23:11:00,
2013-04-24 19:16:00,45.4,35.8,30.11,West,277,4.0,9.0,69,0.00,,,0.60,127,WeatherCatV1.12B45,2013-04-24 23:16:00,
2013-04-24 19:21:00,45.5,35.9,30.11,West,259,3.0,12.0,69,0.00,,,0.60,46,WeatherCatV1.12B45,2013-04-24 23:21:00,
2013-04-24 19:26:00,45.4,35.8,30.11,WNW,292,8.0,8.0,69,0.00,,,0.60,44,WeatherCatV1.12B45,2013-04-24 23:26:00,
2013-04-24 19:31:00,45.3,36.1,30.11,West,281,1.0,6.0,70,0.00,,,0.60,47,WeatherCatV1.12B45,2013-04-24 23:31:00,
2013-04-24 19:36:00,45.2,36.0,30.12,WNW,289,4.0,6.0,70,0.00,,,0.60,37,WeatherCatV1.12B45,2013-04-24 23:36:00,
2013-04-24 19:41:00,45.1,36.3,30.12,WNW,293,6.0,6.0,71,0.00,,,0.60,35,WeatherCatV1.12B45,2013-04-24 23:41:00,
2013-04-24 19:46:00,45.0,35.8,30.12,WNW,286,5.0,5.0,70,0.00,,,0.60,37,WeatherCatV1.12B45,2013-04-24 23:46:00,
2013-04-24 19:51:00,44.9,36.1,30.12,West,259,3.0,6.0,71,0.00,,,0.60,32,WeatherCatV1.12B45,2013-04-24 23:51:00,
2013-04-24 19:56:00,44.9,36.4,30.12,WNW,283,2.0,5.0,72,0.00,,,0.60,26,WeatherCatV1.12B45,2013-04-24 23:56:00,
2013-04-24 20:01:00,44.8,36.3,30.12,WSW,241,2.0,3.0,72,0.00,,,0.60,19,WeatherCatV1.12B45,2013-04-25 00:01:00,
2013-04-24 20:06:00,44.7,36.6,30.12,West,274,3.0,5.0,73,0.00,,,0.60,16,WeatherCatV1.12B45,2013-04-25 00:06:00,
2013-04-24 20:11:00,44.6,36.5,30.13,West,273,2.0,4.0,73,0.00,,,0.60,11,WeatherCatV1.12B45,2013-04-25 00:11:00,
2013-04-24 20:16:00,44.5,36.4,30.13,WSW,248,6.0,7.0,73,0.00,,,0.60,7,WeatherCatV1.12B45,2013-04-25 00:16:00,
2013-04-24 20:21:00,44.4,36.3,30.13,West,261,3.0,6.0,73,0.00,,,0.60,5,WeatherCatV1.12B45,2013-04-25 00:21:00,
2013-04-24 20:26:00,44.4,36.3,30.13,West,279,3.0,5.0,73,0.00,,,0.60,0,WeatherCatV1.12B45,2013-04-25 00:26:00,
2013-04-24 20:31:00,44.3,36.5,30.13,SW,236,4.0,4.0,74,0.00,,,0.60,0,WeatherCatV1.12B45,2013-04-25 00:31:00,
2013-04-24 20:36:00,44.2,36.4,30.14,WSW,247,2.0,6.0,74,0.00,,,0.60,0,WeatherCatV1.12B45,2013-04-25 00:36:00,
2013-04-24 20:41:00,44.0,36.3,30.14,WSW,239,2.0,5.0,74,0.00,,,0.60,0,WeatherCatV1.12B45,2013-04-25 00:41:00,
2013-04-24 20:46:00,43.8,36.1,30.14,West,273,2.0,5.0,74,0.00,,,0.60,0,WeatherCatV1.12B45,2013-04-25 00:46:00,
2013-04-24 20:51:00,43.6,36.2,30.15,WSW,257,3.0,5.0,75,0.00,,,0.60,0,WeatherCatV1.12B45,2013-04-25 00:51:00,
2013-04-24 20:56:00,43.6,36.2,30.15,West,269,2.0,5.0,75,0.00,,,0.60,0,WeatherCatV1.12B45,2013-04-25 00:56:00,
2013-04-24 21:01:00,43.4,36.3,30.15,WSW,244,1.0,4.0,76,0.00,,,0.60,0,WeatherCatV1.12B45,2013-04-25 01:01:00,
2013-04-24 21:06:00,43.2,36.2,30.16,WSW,246,3.0,3.0,76,0.00,,,0.60,0,WeatherCatV1.12B45,2013-04-25 01:06:00,
2013-04-24 21:11:00,43.1,36.1,30.16,West,261,2.0,2.0,76,0.00,,,0.60,0,WeatherCatV1.12B45,2013-04-25 01:11:00,
2013-04-24 21:16:00,43.0,36.3,30.16,WSW,255,1.0,4.0,77,0.00,,,0.60,0,WeatherCatV1.12B45,2013-04-25 01:16:00,
2013-04-24 21:21:00,42.9,36.5,30.16,WNW,285,2.0,5.0,78,0.00,,,0.60,0,WeatherCatV1.12B45,2013-04-25 01:21:00,
2013-04-24 21:26:00,42.8,36.4,30.16,WSW,238,1.0,4.0,78,0.00,,,0.60,0,WeatherCatV1.12B45,2013-04-25 01:26:00,
2013-04-24 21:31:00,42.7,36.3,30.17,WSW,242,2.0,3.0,78,0.00,,,0.60,0,WeatherCatV1.12B45,2013-04-25 01:31:00,
2013-04-24 21:36:00,42.5,36.5,30.17,WSW,242,2.0,2.0,79,0.00,,,0.60,0,WeatherCatV1.12B45,2013-04-25 01:36:00,
2013-04-24 21:41:00,42.4,36.4,30.17,WSW,242,0.0,1.0,79,0.00,,,0.60,0,WeatherCatV1.12B45,2013-04-25 01:41:00,
2013-04-24 21:46:00,42.2,36.2,30.17,WSW,242,1.0,2.0,79,0.00,,,0.60,0,WeatherCatV1.12B45,2013-04-25 01:46:00,
2013-04-24 21:51:00,42.1,36.4,30.18,WSW,242,2.0,3.0,80,0.00,,,0.60,0,WeatherCatV1.12B45,2013-04-25 01:51:00,
2013-04-24 21:56:00,42.0,36.3,30.18,WSW,242,0.0,3.0,80,0.00,,,0.60,0,WeatherCatV1.12B45,2013-04-25 01:56:00,
2013-04-24 22:01:00,41.9,36.2,30.18,WSW,242,0.0,3.0,80,0.00,,,0.60,0,WeatherCatV1.12B45,2013-04-25 02:01:00,
2013-04-24 22:06:00,41.8,36.4,30.18,WSW,242,2.0,4.0,81,0.00,,,0.60,0,WeatherCatV1.12B45,2013-04-25 02:06:00,
2013-04-24 22:11:00,41.7,36.3,30.18,WSW,242,3.0,4.0,81,0.00,,,0.60,0,WeatherCatV1.12B45,2013-04-25 02:11:00,
2013-04-24 22:16:00,41.7,36.3,30.18,West,265,2.0,4.0,81,0.00,,,0.60,0,WeatherCatV1.12B45,2013-04-25 02:16:00,
2013-04-24 22:21:00,41.6,36.5,30.19,WSW,244,4.0,4.0,82,0.00,,,0.60,0,WeatherCatV1.12B45,2013-04-25 02:21:00,
2013-04-24 22:26:00,41.5,36.4,30.19,SW,233,1.0,3.0,82,0.00,,,0.60,0,WeatherCatV1.12B45,2013-04-25 02:26:00,
2013-04-24 22:31:00,41.4,36.3,30.19,SW,233,2.0,2.0,82,0.00,,,0.60,0,WeatherCatV1.12B45,2013-04-25 02:31:00,
2013-04-24 22:36:00,41.3,36.5,30.19,WSW,237,3.0,4.0,83,0.00,,,0.60,0,WeatherCatV1.12B45,2013-04-25 02:36:00,
2013-04-24 22:41:00,41.2,36.4,30.19,WSW,237,1.0,2.0,83,0.00,,,0.60,0,WeatherCatV1.12B45,2013-04-25 02:41:00,
2013-04-24 22:46:00,41.1,36.3,30.19,WSW,237,0.0,3.0,83,0.00,,,0.60,0,WeatherCatV1.12B45,2013-04-25 02:46:00,
2013-04-24 22:51:00,41.0,36.5,30.19,WSW,237,1.0,2.0,84,0.00,,,0.60,0,WeatherCatV1.12B45,2013-04-25 02:51:00,
2013-04-24 22:56:00,40.9,36.4,30.19,WSW,251,2.0,3.0,84,0.00,,,0.60,0,WeatherCatV1.12B45,2013-04-25 02:56:00,
2013-04-24 23:01:00,40.8,36.3,30.19,WSW,242,2.0,2.0,84,0.00,,,0.60,0,WeatherCatV1.12B45,2013-04-25 03:01:00,
2013-04-24 23:06:00,40.7,36.5,30.19,WSW,241,2.0,4.0,85,0.00,,,0.60,0,WeatherCatV1.12B45,2013-04-25 03:06:00,
2013-04-24 23:11:00,40.7,36.5,30.19,SW,223,1.0,4.0,85,0.00,,,0.60,0,WeatherCatV1.12B45,2013-04-25 03:11:00,
2013-04-24 23:16:00,40.7,36.5,30.20,WSW,242,2.0,3.0,85,0.00,,,0.60,0,WeatherCatV1.12B45,2013-04-25 03:16:00,
2013-04-24 23:21:00,40.7,36.5,30.20,WSW,244,0.0,3.0,85,0.00,,,0.60,0,WeatherCatV1.12B45,2013-04-25 03:21:00,
2013-04-24 23:26:00,40.6,36.5,30.20,WSW,244,0.0,2.0,85,0.00,,,0.60,0,WeatherCatV1.12B45,2013-04-25 03:26:00,
2013-04-24 23:32:00,40.5,36.4,30.20,WSW,244,0.0,2.0,85,0.00,,,0.60,0,WeatherCatV1.12B45,2013-04-25 03:32:00,
2013-04-24 23:37:00,40.4,36.3,30.20,WSW,244,0.0,1.0,85,0.00,,,0.60,0,WeatherCatV1.12B45,2013-04-25 03:37:00,
2013-04-24 23:42:00,40.4,36.5,30.20,WSW,244,0.0,0.0,86,0.00,,,0.60,0,WeatherCatV1.12B45,2013-04-25 03:42:00,
2013-04-24 23:47:00,40.2,36.4,30.20,WSW,244,1.0,2.0,86,0.00,,,0.60,0,WeatherCatV1.12B45,2013-04-25 03:47:00,
2013-04-24 23:52:00,40.0,36.4,30.20,WSW,244,0.0,2.0,87,0.00,,,0.60,0,WeatherCatV1.12B45,2013-04-25 03:52:00,
2013-04-24 23:57:00,39.8,36.3,30.20,WSW,244,2.0,2.0,87,0.00,,,0.60,0,WeatherCatV1.12B45,2013-04-25 03:57:00,